Hazen, ND

8:28 PM CDT on April 28, 2017 (GMT -0500)
Mercer County Regional

Weather History for KHZE - September, 2012

Change the Weather History Date:

Wednesday, September 26, 2012

  Actual Average (KN60) Record (KN60)
Temperature  
Mean Temperature 56 °F -  
Max Temperature 80 °F 63 °F 89 °F (2014)
Min Temperature 33 °F 37 °F 35 °F (2002)
Degree Days  
Heating Degree Days 8    
Growing Degree Days 6 (Base 50)    
Moisture  
Dew Point 35 °F    
Average Humidity 52    
Maximum Humidity 93    
Minimum Humidity 20    
Precipitation  
Precipitation 0.00 in - - ()
Sea Level Pressure  
Sea Level Pressure 30.05 in    
Wind  
Wind Speed 6 mph (ESE)    
Max Wind Speed 18 mph    
Max Gust Speed 24 mph    
Visibility 10 miles    
Events      
Averages and records for this station are not official NWS values.
T = Trace of Precipitation, MM = Missing Value Source: NWS Daily Summary

Daily Weather History Graph

Daily Weather History Graph

Search for Another Location

Airport or City:

Trip Planner

Search our weather history database for the weather conditions in past years. The results will help you decide how hot, cold, wet, or windy it might be!

Date:

Astronomy

Sep. 26, 2012 Rise Set
Actual Time 7:39 AM CDT 7:34 PM CDT
Civil Twilight 7:08 AM CDT 8:05 PM CDT
Nautical Twilight 6:32 AM CDT 8:40 PM CDT
Astronomical Twilight 5:56 AM CDT 9:17 PM CDT
Moon 5:44 PM CDT (9/26) 3:55 AM CDT (9/26)
Length of Visible Light 12h 56m
Length of Day
11h 55m
Waxing Gibbous, 88% of the Moon is Illuminated
Sep 26
Waxing Gibbous
Sep 29
Full
Oct 8
Last Quarter
Oct 15
New
Oct 21
First Quarter

Hourly Weather History & Observations

Time (CDT) Temp. Windchill Dew Point Humidity Pressure Visibility Wind Dir Wind Speed Gust Speed Precip Events Conditions
12:15 AM 41.0 °F - 33.8 °F 76% 30.02 in 10.0 mi Calm Calm - N/A   Scattered Clouds
12:35 AM 41.0 °F - 32.0 °F 70% 30.02 in 10.0 mi Calm Calm - N/A   Mostly Cloudy
12:55 AM 41.0 °F 38.0 °F 35.6 °F 81% 30.03 in 10.0 mi NE 4.6 mph - N/A   Mostly Cloudy
1:15 AM 42.8 °F 40.1 °F 35.6 °F 76% 30.03 in 10.0 mi NE 4.6 mph - N/A   Mostly Cloudy
1:35 AM 41.0 °F 38.0 °F 35.6 °F 81% 30.03 in 10.0 mi ENE 4.6 mph - N/A   Mostly Cloudy
1:55 AM 41.0 °F 38.0 °F 33.8 °F 76% 30.03 in 10.0 mi ENE 4.6 mph - N/A   Mostly Cloudy
2:15 AM 41.0 °F 38.0 °F 33.8 °F 76% 30.04 in 10.0 mi NE 4.6 mph - N/A   Mostly Cloudy
2:35 AM 41.0 °F 37.1 °F 33.8 °F 76% 30.04 in 10.0 mi NE 5.8 mph - N/A   Mostly Cloudy
3:15 AM 39.2 °F 35.0 °F 33.8 °F 81% 30.04 in 10.0 mi ENE 5.8 mph - N/A   Overcast
3:35 AM 39.2 °F 33.0 °F 33.8 °F 81% 30.04 in 10.0 mi NE 9.2 mph - N/A   Overcast
3:55 AM 37.4 °F 32.8 °F 32.0 °F 81% 30.04 in 10.0 mi ENE 5.8 mph - N/A   Overcast
4:15 AM 37.4 °F 32.8 °F 32.0 °F 81% 30.05 in 10.0 mi NNE 5.8 mph - N/A   Overcast
4:35 AM 37.4 °F 31.4 °F 32.0 °F 81% 30.05 in 10.0 mi NE 8.1 mph - N/A   Overcast
4:55 AM 37.4 °F 32.8 °F 32.0 °F 81% 30.06 in 10.0 mi ENE 5.8 mph - N/A   Overcast
5:15 AM 37.4 °F 33.8 °F 32.0 °F 81% 30.05 in 10.0 mi ENE 4.6 mph - N/A   Mostly Cloudy
5:35 AM 35.6 °F 31.7 °F 32.0 °F 87% 30.06 in 10.0 mi East 4.6 mph - N/A   Partly Cloudy
5:55 AM 35.6 °F 29.9 °F 32.0 °F 87% 30.06 in 10.0 mi ENE 6.9 mph - N/A   Clear
6:15 AM 35.6 °F 32.8 °F 32.0 °F 87% 30.07 in 10.0 mi NE 3.5 mph - N/A   Clear
6:35 AM 35.6 °F 31.7 °F 32.0 °F 87% 30.07 in 10.0 mi ENE 4.6 mph - N/A   Clear
6:55 AM 35.6 °F 31.7 °F 32.0 °F 87% 30.08 in 10.0 mi ENE 4.6 mph - N/A   Clear
7:35 AM 33.8 °F - 32.0 °F 93% 30.09 in 10.0 mi Calm Calm - N/A   Clear
7:55 AM 33.8 °F 30.8 °F 32.0 °F 93% 30.09 in 8.0 mi ESE 3.5 mph - N/A   Clear
8:15 AM 33.8 °F - 32.0 °F 93% 30.09 in 9.0 mi Calm Calm - N/A   Partly Cloudy
8:35 AM 35.6 °F - 32.0 °F 87% 30.10 in 9.0 mi Calm Calm - N/A   Clear
8:55 AM 39.2 °F 34.2 °F 35.6 °F 87% 30.10 in 10.0 mi NE 6.9 mph - N/A   Clear
9:15 AM 41.0 °F 38.0 °F 35.6 °F 81% 30.10 in 10.0 mi ENE 4.6 mph - N/A   Clear
9:35 AM 44.6 °F - 37.4 °F 76% 30.10 in 10.0 mi Calm Calm - N/A   Clear
9:55 AM 50.0 °F - 37.4 °F 62% 30.10 in 10.0 mi NNE 4.6 mph - N/A   Clear
10:15 AM 55.4 °F - 37.4 °F 51% 30.10 in 10.0 mi SSE 8.1 mph - N/A   Clear
10:35 AM 59.0 °F - 37.4 °F 45% 30.10 in 10.0 mi South 10.4 mph - N/A   Clear
11:35 AM 64.4 °F - 37.4 °F 37% 30.09 in 10.0 mi South 10.4 mph 16.1 mph N/A   Clear
11:55 AM 64.4 °F - 37.4 °F 37% 30.09 in 10.0 mi SSE 10.4 mph - N/A   Clear
12:15 PM 66.2 °F - 37.4 °F 35% 30.09 in 10.0 mi South 9.2 mph - N/A   Clear
12:35 PM 69.8 °F - 37.4 °F 31% 30.09 in 10.0 mi SSE 10.4 mph - N/A   Clear
12:55 PM 71.6 °F - 37.4 °F 29% 30.08 in 10.0 mi SSE 8.1 mph - N/A   Clear
1:15 PM 71.6 °F - 37.4 °F 29% 30.08 in 10.0 mi SE 8.1 mph - N/A   Clear
1:35 PM 73.4 °F - 37.4 °F 27% 30.07 in 10.0 mi SE 9.2 mph - N/A   Clear
1:55 PM 73.4 °F - 37.4 °F 27% 30.06 in 10.0 mi South 6.9 mph - N/A   Clear
2:15 PM 75.2 °F - 37.4 °F 25% 30.05 in 10.0 mi South 10.4 mph - N/A   Clear
2:35 PM 75.2 °F - 37.4 °F 25% 30.04 in 10.0 mi South 9.2 mph - N/A   Clear
2:55 PM 77.0 °F - 37.4 °F 24% 30.04 in 9.0 mi SSE 10.4 mph - N/A   Clear
3:35 PM 78.8 °F - 37.4 °F 23% 30.04 in 10.0 mi SSE 11.5 mph 16.1 mph N/A   Clear
3:55 PM 78.8 °F - 37.4 °F 23% 30.04 in 10.0 mi SSE 8.1 mph 16.1 mph N/A   Clear
4:15 PM 78.8 °F - 37.4 °F 23% 30.03 in 10.0 mi SSE 9.2 mph 16.1 mph N/A   Clear
4:35 PM 80.6 °F - 35.6 °F 20% 30.03 in 10.0 mi SSE 8.1 mph - N/A   Clear
4:55 PM 80.6 °F - 35.6 °F 20% 30.03 in 10.0 mi South 9.2 mph - N/A   Clear
5:15 PM 80.6 °F - 35.6 °F 20% 30.02 in 10.0 mi SSE 10.4 mph 17.3 mph N/A   Clear
5:35 PM 80.6 °F - 35.6 °F 20% 30.02 in 10.0 mi SSE 12.7 mph - N/A   Clear
5:55 PM 78.8 °F - 35.6 °F 21% 30.03 in 10.0 mi SSE 9.2 mph - N/A   Clear
6:15 PM 77.0 °F - 35.6 °F 22% 30.03 in 10.0 mi SSE 8.1 mph - N/A   Clear
6:35 PM 75.2 °F - 35.6 °F 24% 30.03 in 10.0 mi SE 6.9 mph - N/A   Clear
6:55 PM 73.4 °F - 35.6 °F 25% 30.03 in 9.0 mi SE 8.1 mph - N/A   Clear
7:15 PM 69.8 °F - 35.6 °F 28% 30.03 in 7.0 mi SE 9.2 mph - N/A   Clear
7:35 PM 68.0 °F - 37.4 °F 33% 30.03 in 10.0 mi SE 9.2 mph - N/A   Clear
7:55 PM 68.0 °F - 37.4 °F 33% 30.03 in 10.0 mi SE 12.7 mph - N/A   Clear
8:15 PM 66.2 °F - 37.4 °F 35% 30.04 in 10.0 mi SE 10.4 mph - N/A   Clear
8:35 PM 66.2 °F - 37.4 °F 35% 30.04 in 10.0 mi SE 11.5 mph 16.1 mph N/A   Clear
8:55 PM 64.4 °F - 37.4 °F 37% 30.05 in 10.0 mi SE 11.5 mph - N/A   Clear
9:15 PM 64.4 °F - 37.4 °F 37% 30.05 in 10.0 mi SE 12.7 mph - N/A   Clear
9:35 PM 66.2 °F - 37.4 °F 35% 30.04 in 10.0 mi SSE 15.0 mph 19.6 mph N/A   Clear
9:55 PM 66.2 °F - 37.4 °F 35% 30.05 in 10.0 mi SSE 16.1 mph 20.7 mph N/A   Clear
10:15 PM 64.4 °F - 37.4 °F 37% 30.05 in 10.0 mi SSE 16.1 mph - N/A   Clear
10:35 PM 64.4 °F - 37.4 °F 37% 30.05 in 10.0 mi SSE 15.0 mph - N/A   Clear
11:15 PM 62.6 °F - 35.6 °F 37% 30.05 in 10.0 mi SSE 18.4 mph 24.2 mph N/A   Clear
11:35 PM 62.6 °F - 35.6 °F 37% 30.05 in 10.0 mi South 17.3 mph 23.0 mph N/A   Clear
11:55 PM 60.8 °F - 35.6 °F 39% 30.06 in 10.0 mi South 13.8 mph 19.6 mph N/A   Clear